Terminal Aerodrome Forecast
Issued by NWS

Home | Current Version | Previous Version | Text Only | Print | Product List | Glossary On
Versions: 1 2 3 4 5 6 7 8 9 10 11 12
000
FTUS42 TJSJ 061730
TAFISX
TAF
TISX 061730Z 0618/0718 11013G21KT P6SM FEW030
     FM062300 07010KT P6SM SKC
     FM071300 11015G25KT P6SM FEW025=

USA.gov is the U.S. government's official web portal to all federal, state and local government web resources and services.